Location: Grand Mazuras
(45.9128°N, 1.7636°E)
Time: 04:10:29
(UTC+00:00)

Lacrosse 5 rocket - Pass Details

Date: 18 April 2021
Orbit: 460 x 634 km, 57.0° (Epoch: 10 May)

Event Time Altitude Azimuth Distance (km) Brightness Sun altitude
Rises 19:23:51 0° 264° (W) 2,638 6.0 -7.3°
Reaches altitude 10° 19:26:13 10° 276° (W) 1,784 5.3 -7.7°
Maximum altitude 19:29:46 29° 337° (NNW) 1,036 3.3 -8.2°
Drops below altitude 10° 19:33:31 10° 39° (NE) 1,887 3.9 -8.8°
Sets 19:36:05 0° 50° (NE) 2,820 4.7 -9.2°
